COSMOS 2251 DEB, 33892

Orbit data source: Space-Track

COSMOS 2251 DEB, 33892 is space debris in LEO originally from a launch on Wed, 16 Jun 1993 UTC launched from the Plesetsk Missile And Space Complex (PKMTR). The debris from Iridium 33, an American commercial communications satellite, has been tracked extensively since its accidental collision with the defunct Russian satellite Cosmos 2251 in 2009. This event, occurring at high speed in low Earth orbit (LEO), generated thousands of pieces of space debris, significantly increasing the risk of further collisions. The Iridium 33 debris cloud has impacted space traffic management and orbital debris mitigation strategies, making it a subject of ongoing study in space situational awareness.

Loading next visibility...
Identifier
33892, 1993-036CV
Orbit
LEO
Country
Flag of CISCIS
Related business
Manufacturer
Unknown
Mission
Spacecraft
Bus & Motor
Unknown
Mass
Unknown
Launch date (UTC)
1993-06-16 (33 years ago)
Launch vehicle
Unknown
Launch site
Plesetsk Missile And Space Complex (PKMTR)
Object type
Payload
Rocket body
Debris
Shape & HBR
Unknown shape, 0.1 m
Radar Cross Section
Small (<0.1 m²)

Expand to show TLE details & history
Last TLE update: 20 hours ago

TLE from 20 hours ago
0 COSMOS 2251 DEB
1 33892U 93036CV  26063.15259964  .00001754  00000-0  73083-3 0  9995
2 33892  73.8036 313.5000 0113566 329.4984 183.5570 14.23660364881132
Epoch: 2026-03-04T03:39Z
TLE epoch observation values (Epoch: 2026-03-04T03:39:44.608Z)
Latitude
25.90891°
Longitude
-91.42575°
Altitude
897.336 km
Speed
7.364 km/s
True Right ascension
08h 21m 43s
True Declination
25° 46' 36"
Sunlit
Object was in full shadow at epoch
Visualization orbit readout
Latitude
Unknown
Longitude
Unknown
Altitude
Unknown
Speed
Unknown
Apparent Right ascension
Unknown
Apparent Declination
Unknown
Sunlit
N/A
Visualization observer readout
Local Sidereal Time
03:33:17
Azimuth
Unknown
Elevation
Unknown
Doppler factor
Unknown
Orbital elements
Apogee altitude
892.298 km
Perigee altitude
729.017 km
Semi-major axis
7,188.794 km
Eccentricity
0.01136
Inclination
73.8036°
RAAN
313.5°
Arg. of periapsis
329.4984°
True anomaly
183.47739°
Mean anomaly
183.557°
Eccentric anomaly
183.51708°
Mean motion
3.56089 °/min
Orbital period
101.1 mins
BSTAR
0.00073083

Documentation

Showing up to 5 results
|